| time (UTC) | temp F | wind direction | speed knots | gust knots | rain 1hr in | rain 24hr in | rain mn in | humidity % | barometer mb |
| 20260831074551 | 61 | 290 | 2.6 | 6.1 | 0.00 | 0.00 | 0.00 | 72 | 1015.3 |
| 20260831073100 | 61 | 298 | 1.7 | 5.2 | 0.00 | 0.00 | 0.00 | 72 | 1015.3 |
| 20260831071601 | 60 | 286 | 0.9 | 3.5 | 0.00 | 0.00 | 0.00 | 73 | 1015.4 |
| 20260831070054 | 60 | 285 | 1.7 | 5.2 | 0.00 | 0.00 | 0.00 | 74 | 1015.5 |
| 20260831064601 | 60 | 305 | 0.9 | 4.3 | 0.00 | 0.00 | 0.00 | 74 | 1015.8 |
| 20260831063108 | 60 | 264 | 0.9 | 3.5 | 0.00 | 0.00 | 0.00 | 74 | 1015.9 |
| 20260831061553 | 60 | 283 | 1.7 | 6.1 | 0.00 | 0.00 | 0.00 | 73 | 1016.2 |
| 20260831060056 | 60 | 304 | 0.9 | 5.2 | 0.00 | 0.00 | 0.00 | 73 | 1016.3 |
| 20260831054555 | 60 | 22 | 0.0 | 2.6 | 0.00 | 0.00 | 0.00 | 73 | 1016.4 |
| 20260831053100 | 61 | 360 | 0.0 | 3.5 | 0.00 | 0.00 | 0.00 | 72 | 1016.6 |
| 20260831051559 | 61 | 0 | 0.9 | 2.6 | 0.00 | 0.00 | 0.00 | 72 | 1016.9 |
| 20260831050108 | 61 | 0 | 0.0 | 3.5 | 0.00 | 0.00 | 0.00 | 72 | 1017.0 |
| 20260831044549 | 61 | 325 | 0.9 | 2.6 | 0.00 | 0.00 | 0.00 | 71 | 1017.1 |
| 20260831043052 | 61 | 0 | 0.0 | 5.2 | 0.00 | 0.00 | 0.00 | 71 | 1017.2 |
| 20260831041556 | 62 | 0 | 0.9 | 3.5 | 0.00 | 0.00 | 0.00 | 69 | 1017.3 |
| 20260831040055 | 62 | 292 | 0.9 | 3.5 | 0.00 | 0.00 | 0.00 | 69 | 1017.2 |
| 20260831034559 | 63 | 310 | 1.7 | 6.1 | 0.00 | 0.00 | 0.00 | 68 | 1017.2 |
| 20260831033101 | 63 | 282 | 0.9 | 3.5 | 0.00 | 0.00 | 0.00 | 67 | 1017.1 |
| 20260831031555 | 64 | 274 | 0.9 | 3.5 | 0.00 | 0.00 | 0.00 | 66 | 1017.2 |
| 20260831030054 | 65 | 329 | 2.6 | 8.7 | 0.00 | 0.00 | 0.00 | 65 | 1017.3 |
| 20260831024602 | 65 | 341 | 2.6 | 8.7 | 0.00 | 0.00 | 0.00 | 63 | 1017.4 |
| 20260831023054 | 67 | 17 | 1.7 | 7.8 | 0.00 | 0.00 | 0.00 | 62 | 1017.5 |
| 20260831021554 | 68 | 11 | 4.3 | 10.4 | 0.00 | 0.00 | 0.00 | 59 | 1017.3 |
| 20260831014556 | 70 | 352 | 4.3 | 9.6 | 0.00 | 0.00 | 0.00 | 56 | 1017.6 |
| 20260831013102 | 70 | 84 | 2.6 | 12.2 | 0.00 | 0.00 | 0.00 | 57 | 1017.8 |
| 20260831011604 | 71 | 80 | 4.3 | 9.6 | 0.00 | 0.00 | 0.00 | 54 | 1017.8 |
| 20260831010106 | 72 | 360 | 5.2 | 13.0 | 0.00 | 0.00 | 0.00 | 53 | 1017.9 |
| 20260831004555 | 72 | 36 | 4.3 | 12.2 | 0.00 | 0.00 | 0.00 | 51 | 1018.1 |
| 20260831003051 | 73 | 91 | 3.5 | 11.3 | 0.00 | 0.00 | 0.00 | 50 | 1018.1 |
| 20260831001608 | 74 | 64 | 5.2 | 11.3 | 0.00 | 0.00 | 0.00 | 49 | 1018.2 |
| 20260831000056 | 73 | 55 | 5.2 | 13.0 | 0.00 | 0.00 | 0.00 | 49 | 1018.2 |
| 20260830234611 | 74 | 70 | 5.2 | 9.6 | 0.00 | 0.00 | 0.00 | 48 | 1018.3 |
| 20260830233130 | 75 | 352 | 4.3 | 8.7 | 0.00 | 0.00 | 0.00 | 48 | 1018.4 |
| 20260830231559 | 74 | 59 | 5.2 | 11.3 | 0.00 | 0.00 | 0.00 | 49 | 1018.6 |
| 20260830230104 | 74 | 59 | 4.3 | 8.7 | 0.00 | 0.00 | 0.00 | 47 | 1018.9 |
| 20260830224554 | 74 | 360 | 3.5 | 9.6 | 0.00 | 0.00 | 0.00 | 47 | 1019.1 |
| 20260830223103 | 74 | 22 | 4.3 | 10.4 | 0.00 | 0.00 | 0.00 | 48 | 1019.2 |
| 20260830221556 | 74 | 59 | 2.6 | 8.7 | 0.00 | 0.00 | 0.00 | 48 | 1019.4 |
| 20260830220055 | 74 | 13 | 4.3 | 10.4 | 0.00 | 0.00 | 0.00 | 47 | 1019.6 |
| 20260830214559 | 74 | 342 | 2.6 | 12.2 | 0.00 | 0.00 | 0.00 | 47 | 1019.8 |
| 20260830213138 | 73 | 69 | 6.1 | 11.3 | 0.00 | 0.00 | 0.00 | 47 | 1019.9 |
| 20260830211555 | 73 | 5 | 2.6 | 7.8 | 0.00 | 0.00 | 0.00 | 49 | 1020.1 |
| 20260830204557 | 72 | 59 | 0.9 | 8.7 | 0.00 | 0.00 | 0.00 | 49 | 1020.4 |
| 20260830203054 | 71 | 257 | 0.0 | 9.6 | 0.00 | 0.00 | 0.00 | 49 | 1020.5 |
| 20260830201551 | 71 | 327 | 4.3 | 10.4 | 0.00 | 0.00 | 0.00 | 49 | 1020.5 |
| 20260830200100 | 71 | 346 | 3.5 | 7.8 | 0.00 | 0.00 | 0.00 | 49 | 1020.6 |
| 20260830194602 | 70 | 78 | 1.7 | 6.1 | 0.00 | 0.00 | 0.00 | 51 | 1020.8 |
| 20260830193053 | 69 | 24 | 3.5 | 9.6 | 0.00 | 0.00 | 0.00 | 53 | 1020.9 |
| 20260830191608 | 68 | 137 | 1.7 | 7.8 | 0.00 | 0.00 | 0.00 | 52 | 1021.1 |
| 20260830190100 | 69 | 340 | 1.7 | 7.8 | 0.00 | 0.00 | 0.00 | 55 | 1021.2 |
| 20260830184552 | 68 | 46 | 2.6 | 7.8 | 0.00 | 0.00 | 0.00 | 54 | 1021.3 |
| 20260830183054 | 67 | 62 | 4.3 | 11.3 | 0.00 | 0.00 | 0.00 | 54 | 1021.3 |
| 20260830181556 | 66 | 39 | 2.6 | 9.6 | 0.00 | 0.00 | 0.00 | 58 | 1021.6 |
| 20260830180110 | 66 | 76 | 1.7 | 7.8 | 0.00 | 0.00 | 0.00 | 57 | 1021.5 |
| 20260830174615 | 65 | 11 | 4.3 | 9.6 | 0.00 | 0.00 | 0.00 | 57 | 1021.5 |
| 20260830173103 | 64 | 31 | 0.9 | 5.2 | 0.00 | 0.00 | 0.00 | 64 | 1021.5 |
| 20260830171605 | 64 | 0 | 0.9 | 4.3 | 0.00 | 0.00 | 0.00 | 63 | 1021.6 |
| 20260830164605 | 61 | 0 | 0.0 | 3.5 | 0.00 | 0.00 | 0.00 | 69 | 1021.6 |
| 20260830163101 | 59 | 0 | 0.0 | 1.7 | 0.00 | 0.00 | 0.00 | 74 | 1021.8 |
| 20260830161554 | 57 | 0 | 0.0 | 1.7 | 0.00 | 0.00 | 0.00 | 79 | 1021.7 |
| 20260830160106 | 55 | 0 | 0.0 | 0.0 | 0.00 | 0.00 | 0.00 | 81 | 1021.8 |
| 20260830154551 | 54 | 0 | 0.0 | 1.7 | 0.00 | 0.00 | 0.00 | 84 | 1022.1 |
| 20260830153101 | 53 | 0 | 0.0 | 1.7 | 0.00 | 0.00 | 0.00 | 87 | 1021.9 |
| 20260830151556 | 50 | 0 | 0.0 | 1.7 | 0.00 | 0.00 | 0.00 | 92 | 1021.9 |
| 20260830150053 | 47 | 360 | 0.9 | 2.6 | 0.00 | 0.00 | 0.00 | 96 | 1021.9 |
| 20260830144600 | 45 | 0 | 0.9 | 1.7 | 0.00 | 0.00 | 0.00 | 96 | 1022.0 |
| 20260830143057 | 43 | 0 | 0.0 | 1.7 | 0.00 | 0.00 | 0.00 | 96 | 1022.0 |
| 20260830141552 | 42 | 0 | 0.0 | 1.7 | 0.00 | 0.00 | 0.00 | 95 | 1021.8 |
| 20260830140100 | 42 | 0 | 0.0 | 0.9 | 0.00 | 0.00 | 0.00 | 95 | 1021.8 |
| 20260830134602 | 42 | 215 | 0.9 | 1.7 | 0.00 | 0.00 | 0.00 | 95 | 1021.8 |
| 20260830133048 | 41 | 0 | 0.0 | 0.0 | 0.00 | 0.00 | 0.00 | 94 | 1021.6 |
| 20260830131559 | 42 | 0 | 0.0 | 0.0 | 0.00 | 0.00 | 0.00 | 94 | 1021.5 |
| 20260830130106 | 42 | 0 | 0.9 | 1.7 | 0.00 | 0.00 | 0.00 | 94 | 1021.5 |
| 20260830124554 | 42 | 257 | 0.0 | 0.0 | 0.00 | 0.00 | 0.00 | 95 | 1021.5 |
| 20260830123054 | 42 | 0 | 0.0 | 0.0 | 0.00 | 0.00 | 0.00 | 94 | 1021.5 |
| 20260830121603 | 42 | 0 | 0.0 | 1.7 | 0.00 | 0.00 | 0.00 | 94 | 1021.5 |
| 20260830120054 | 42 | 0 | 0.0 | 0.9 | 0.00 | 0.00 | 0.00 | 93 | 1021.5 |
| 20260830114557 | 43 | 0 | 0.0 | 1.7 | 0.00 | 0.00 | 0.00 | 94 | 1021.5 |
| 20260830113057 | 43 | 0 | 0.0 | 0.0 | 0.00 | 0.00 | 0.00 | 93 | 1021.4 |
| 20260830111550 | 43 | 0 | 0.0 | 0.9 | 0.00 | 0.00 | 0.00 | 93 | 1021.5 |
| 20260830110054 | 44 | 269 | 0.0 | 0.0 | 0.00 | 0.00 | 0.00 | 93 | 1021.4 |
| 20260830104600 | 44 | 0 | 0.0 | 1.7 | 0.00 | 0.00 | 0.00 | 92 | 1021.4 |
| 20260830103056 | 44 | 0 | 0.0 | 2.6 | 0.00 | 0.00 | 0.00 | 93 | 1021.3 |
| 20260830101554 | 44 | 0 | 0.0 | 0.9 | 0.00 | 0.00 | 0.00 | 92 | 1021.2 |
| 20260830100104 | 45 | 0 | 0.9 | 2.6 | 0.00 | 0.00 | 0.00 | 92 | 1021.3 |
| 20260830094556 | 45 | 330 | 0.0 | 1.7 | 0.00 | 0.00 | 0.00 | 91 | 1021.2 |
| 20260830093054 | 46 | 0 | 0.0 | 1.7 | 0.00 | 0.00 | 0.00 | 92 | 1021.3 |
| 20260830091549 | 46 | 0 | 0.0 | 1.7 | 0.00 | 0.00 | 0.00 | 90 | 1021.4 |
| 20260830090105 | 46 | 0 | 0.0 | 1.7 | 0.00 | 0.00 | 0.00 | 90 | 1021.5 |
| 20260830084554 | 47 | 194 | 0.9 | 2.6 | 0.00 | 0.00 | 0.00 | 90 | 1021.4 |
| 20260830083053 | 47 | 0 | 0.0 | 0.0 | 0.00 | 0.00 | 0.00 | 89 | 1021.5 |
| 20260830081557 | 48 | 212 | 0.9 | 2.6 | 0.00 | 0.00 | 0.00 | 88 | 1021.4 |
| 20260830080054 | 48 | 0 | 0.0 | 2.6 | 0.00 | 0.00 | 0.00 | 87 | 1021.4 |